When you browse on this site, cookies collect data to enhance your experience and personalize the content and advertising you see.
Visit our Privacy Policy to learn more. By continuing to use the site, you agree to this use of cookies and data.
  • In Belgium
  • List of Countries
  • For 7 days
  • Water Temperature
  • Satellite Maps
  • Weather Map
  • Weather Widgets
  • user-avatar
    Login

    Hourly Weather Perth

    Today, 24 May, Friday

    Time Temperature Precipitation Wind Pressure Humidity
    00:00 +15°C° 0 mm 1 mps 766 mmHg 80%
    01:00 +15°C° 0 mm 1 mps 766 mmHg 82%
    02:00 +15°C° 0 mm 1 mps 766 mmHg 83%
    03:00 +14°C° 0 mm 1 mps 766 mmHg 83%
    04:00 +14°C° 0 mm 1 mps 766 mmHg 84%
    05:00 +14°C° 0 mm 1 mps 766 mmHg 85%
    06:00 +14°C° 0 mm 1 mps 766 mmHg 85%
    07:00 +14°C° 0 mm 1 mps 766 mmHg 84%
    08:00 +15°C° 0 mm 1 mps 767 mmHg 84%
    09:00 +18°C° 0 mm 1 mps 767 mmHg 75%
    10:00 +19°C° 0 mm 2 mps 767 mmHg 65%
    11:00 +21°C° 0 mm 2 mps 767 mmHg 56%
    12:00 +21°C° 0 mm 2 mps 766 mmHg 53%
    13:00 +22°C° 0 mm 3 mps 766 mmHg 51%
    14:00 +22°C° 0 mm 3 mps 765 mmHg 49%
    15:00 +21°C° 0 mm 3 mps 765 mmHg 54%
    16:00 +20°C° 0 mm 3 mps 765 mmHg 58%
    17:00 +19°C° 0 mm 4 mps 765 mmHg 63%
    18:00 +18°C° 0 mm 3 mps 766 mmHg 68%
    19:00 +17°C° 0 mm 3 mps 766 mmHg 73%
    20:00 +16°C° 0 mm 2 mps 766 mmHg 78%
    21:00 +16°C° 0 mm 2 mps 767 mmHg 79%
    22:00 +16°C° 0 mm 2 mps 767 mmHg 80%
    23:00 +15°C° 0 mm 2 mps 767 mmHg 81%

    Tomorrow, 25 May, Saturday

    Time Temperature Precipitation Wind Pressure Humidity
    00:00 +15°C° 0 mm 2 mps 767 mmHg 82%
    01:00 +15°C° 0 mm 2 mps 767 mmHg 82%
    02:00 +14°C° 0 mm 2 mps 767 mmHg 83%
    03:00 +14°C° 0 mm 2 mps 767 mmHg 83%
    04:00 +13°C° 0 mm 3 mps 766 mmHg 83%
    05:00 +12°C° 0 mm 3 mps 766 mmHg 83%
    06:00 +12°C° 0 mm 3 mps 767 mmHg 83%
    07:00 +12°C° 0 mm 3 mps 767 mmHg 82%
    08:00 +12°C° 0 mm 3 mps 767 mmHg 81%
    09:00 +15°C° 0 mm 2 mps 767 mmHg 72%
    10:00 +17°C° 0 mm 2 mps 767 mmHg 63%
    11:00 +19°C° 0 mm 2 mps 767 mmHg 54%
    12:00 +20°C° 0 mm 2 mps 767 mmHg 50%
    13:00 +21°C° 0 mm 2 mps 766 mmHg 46%
    14:00 +23°C° 0 mm 2 mps 766 mmHg 42%
    15:00 +21°C° 0 mm 2 mps 766 mmHg 46%
    16:00 +20°C° 0 mm 2 mps 766 mmHg 49%
    17:00 +19°C° 0 mm 3 mps 766 mmHg 52%
    18:00 +18°C° 0 mm 3 mps 766 mmHg 56%
    19:00 +17°C° 0 mm 3 mps 766 mmHg 59%
    20:00 +16°C° 0 mm 3 mps 767 mmHg 63%
    21:00 +16°C° 0 mm 3 mps 767 mmHg 64%
    22:00 +14°C° 0 mm 3 mps 767 mmHg 65%
    23:00 +14°C° 0 mm 3 mps 767 mmHg 65%

    Day after tomorrow, 26 May, Sunday

    Time Temperature Precipitation Wind Pressure Humidity
    00:00 +13°C° 0 mm 4 mps 767 mmHg 67%
    01:00 +13°C° 0 mm 4 mps 767 mmHg 69%
    02:00 +13°C° 0 mm 4 mps 767 mmHg 70%
    03:00 +13°C° 0 mm 4 mps 767 mmHg 73%
    04:00 +13°C° 0 mm 4 mps 767 mmHg 75%
    05:00 +13°C° 0 mm 4 mps 767 mmHg 78%
    06:00 +13°C° 0 mm 4 mps 767 mmHg 78%
    07:00 +13°C° 0 mm 5 mps 767 mmHg 79%
    08:00 +13°C° 0 mm 5 mps 767 mmHg 79%
    09:00 +15°C° 0 mm 5 mps 767 mmHg 70%
    10:00 +17°C° 0 mm 5 mps 767 mmHg 62%
    11:00 +20°C° 0 mm 5 mps 767 mmHg 53%
    12:00 +20°C° 0 mm 4 mps 767 mmHg 49%
    13:00 +21°C° 0 mm 4 mps 766 mmHg 46%
    14:00 +22°C° 0 mm 4 mps 765 mmHg 43%
    15:00 +22°C° 0 mm 4 mps 765 mmHg 45%
    16:00 +21°C° 0 mm 3 mps 765 mmHg 47%
    17:00 +20°C° 0 mm 3 mps 765 mmHg 50%
    18:00 +19°C° 0 mm 4 mps 766 mmHg 52%
    19:00 +19°C° 0 mm 5 mps 766 mmHg 54%
    20:00 +17°C° 0 mm 5 mps 767 mmHg 57%
    21:00 +16°C° 0 mm 6 mps 767 mmHg 57%
    22:00 +16°C° 0 mm 6 mps 767 mmHg 58%
    23:00 +15°C° 0 mm 6 mps 767 mmHg 59%

    27 May, Monday

    Time Temperature Precipitation Wind Pressure Humidity
    00:00 +15°C° 0 mm 6 mps 767 mmHg 60%
    01:00 +15°C° 0 mm 6 mps 766 mmHg 61%
    02:00 +15°C° 0 mm 6 mps 766 mmHg 62%
    03:00 +14°C° 0 mm 6 mps 766 mmHg 63%
    04:00 +14°C° 0 mm 6 mps 766 mmHg 65%
    05:00 +14°C° 0 mm 6 mps 766 mmHg 66%
    06:00 +14°C° 0 mm 6 mps 766 mmHg 66%
    07:00 +14°C° 0 mm 6 mps 767 mmHg 67%
    08:00 +14°C° 0 mm 6 mps 767 mmHg 67%
    09:00 +16°C° 0 mm 6 mps 767 mmHg 61%
    10:00 +17°C° 0 mm 6 mps 767 mmHg 55%
    11:00 +20°C° 0 mm 6 mps 766 mmHg 50%
    12:00 +22°C° 0 mm 5 mps 766 mmHg 47%
    13:00 +23°C° 0 mm 5 mps 765 mmHg 44%
    14:00 +25°C° 0 mm 5 mps 764 mmHg 41%
    15:00 +23°C° 0 mm 5 mps 764 mmHg 42%
    16:00 +23°C° 0 mm 4 mps 764 mmHg 44%
    17:00 +22°C° 0 mm 4 mps 764 mmHg 46%
    18:00 +21°C° 0 mm 5 mps 765 mmHg 47%
    19:00 +21°C° 0 mm 5 mps 765 mmHg 47%
    20:00 +20°C° 0 mm 6 mps 765 mmHg 48%
    21:00 +20°C° 0 mm 6 mps 765 mmHg 48%
    22:00 +18°C° 0 mm 7 mps 765 mmHg 47%
    23:00 +18°C° 0 mm 7 mps 765 mmHg 47%

    28 May, Tuesday

    Time Temperature Precipitation Wind Pressure Humidity
    00:00 +18°C° 0 mm 7 mps 765 mmHg 48%
    01:00 +17°C° 0 mm 6 mps 765 mmHg 49%
    02:00 +17°C° 0 mm 6 mps 765 mmHg 51%
    03:00 +17°C° 0 mm 6 mps 765 mmHg 52%
    04:00 +16°C° 0 mm 6 mps 765 mmHg 54%
    05:00 +16°C° 0 mm 6 mps 765 mmHg 55%
    06:00 +16°C° 0 mm 6 mps 765 mmHg 56%
    07:00 +16°C° 0 mm 6 mps 765 mmHg 57%
    08:00 +16°C° 0 mm 6 mps 766 mmHg 57%
    09:00 +19°C° 0 mm 6 mps 766 mmHg 53%
    10:00 +20°C° 0 mm 5 mps 766 mmHg 49%
    11:00 +22°C° 0 mm 5 mps 766 mmHg 45%
    12:00 +23°C° 0 mm 5 mps 765 mmHg 44%
    13:00 +25°C° 0 mm 5 mps 764 mmHg 42%
    14:00 +27°C° 0 mm 4 mps 764 mmHg 40%
    15:00 +26°C° 0 mm 4 mps 764 mmHg 42%
    16:00 +25°C° 0 mm 4 mps 764 mmHg 44%
    17:00 +24°C° 0 mm 3 mps 764 mmHg 45%
    18:00 +23°C° 0 mm 4 mps 765 mmHg 45%
    19:00 +22°C° 0 mm 4 mps 765 mmHg 46%
    20:00 +21°C° 0 mm 5 mps 766 mmHg 46%
    21:00 +21°C° 0 mm 5 mps 766 mmHg 46%
    22:00 +21°C° 0 mm 6 mps 766 mmHg 46%
    23:00 +20°C° 0 mm 6 mps 766 mmHg 46%

    29 May, Wednesday

    Time Temperature Precipitation Wind Pressure Humidity
    00:00 +20°C° 0 mm 6 mps 766 mmHg 47%
    01:00 +19°C° 0 mm 6 mps 766 mmHg 48%
    02:00 +19°C° 0 mm 6 mps 766 mmHg 49%
    03:00 +19°C° 0 mm 6 mps 766 mmHg 50%
    04:00 +17°C° 0 mm 6 mps 766 mmHg 51%
    05:00 +17°C° 0 mm 6 mps 766 mmHg 52%
    06:00 +17°C° 0 mm 6 mps 767 mmHg 51%
    07:00 +17°C° 0 mm 6 mps 767 mmHg 51%
    08:00 +17°C° 0 mm 6 mps 767 mmHg 50%
    09:00 +19°C° 0 mm 6 mps 767 mmHg 46%
    10:00 +21°C° 0 mm 6 mps 767 mmHg 41%
    11:00 +23°C° 0 mm 6 mps 767 mmHg 37%
    12:00 +24°C° 0 mm 6 mps 766 mmHg 35%
    13:00 +26°C° 0 mm 6 mps 766 mmHg 33%
    14:00 +26°C° 0 mm 6 mps 765 mmHg 32%
    15:00 +26°C° 0 mm 5 mps 765 mmHg 33%
    16:00 +25°C° 0 mm 5 mps 765 mmHg 35%
    17:00 +23°C° 0 mm 4 mps 766 mmHg 37%
    18:00 +23°C° 0 mm 4 mps 766 mmHg 37%
    19:00 +22°C° 0 mm 5 mps 766 mmHg 38%
    20:00 +21°C° 0 mm 5 mps 767 mmHg 38%
    21:00 +21°C° 0 mm 5 mps 767 mmHg 37%
    22:00 +21°C° 0 mm 6 mps 767 mmHg 36%
    23:00 +21°C° 0 mm 6 mps 767 mmHg 34%
    Show more